Location: Caltech
(34.1382°N, 118.1253°W)
Time: 09:40:55
(UTC-07:00)

Saudisat 1A - Visible Passes

Search period start: 30 October 2014 00:00
Search period end: 08 November 2014 23:00
Orbit: 597 x 608 km, 64.6° (Epoch: 30 October)

Date Brightness Start Highest point End Pass type
(mag) Time Alt. Az. Time Alt. Az. Time Alt. Az.
30 Oct 10.6 05:07:48 10° SSE 05:11:01 20° ESE 05:14:16 10° ENE visible
31 Oct 9.2 05:18:47 10° S 05:22:53 41° ESE 05:27:02 10° NE visible
01 Nov 7.9 05:32:40 29° SSW 05:34:51 87° ESE 05:39:16 10° NNE visible
02 Nov 11.1 03:09:16 12° E 03:09:16 12° E 03:10:06 10° ENE visible
02 Nov 8.3 04:46:09 41° W 04:46:55 45° WNW 04:51:09 10° NNE visible
03 Nov 10.8 03:22:21 15° ENE 03:22:21 15° ENE 03:23:22 10° NE visible
03 Nov 9.2 04:59:12 24° NW 04:59:12 24° NW 05:02:42 10° N visible
04 Nov 10.7 03:35:06 14° NE 03:35:06 14° NE 03:35:49 10° NE visible
04 Nov 9.9 05:11:57 13° NW 05:11:57 13° NW 05:13:36 10° NNW visible
05 Nov 10.7 03:47:38 11° NNE 03:47:38 11° NNE 03:47:51 10° NNE visible
